JAVIFLY Weather Reports


Display with metric or nautical units.
time (UTC)temp
F
wind
direction
speed
MPH
gust
MPH
rain 1hr
in
rain 24hr
in
rain mn
in
humidity
%
barometer
mb
20260506235503 49 85 1.0 2.0 0.00 0.00 0.00 85 1015.0
20260506235003 50 81 0.0 2.0 0.00 0.00 0.00 84 1015.0
20260506234503 50 92 1.0 2.0 0.00 0.00 0.00 84 1015.0
20260506234003 50 99 1.0 3.0 0.00 0.00 0.00 84 1015.2
20260506233503 50 94 1.0 3.0 0.00 0.00 0.00 85 1015.3
20260506233003 49 83 1.0 2.0 0.00 0.00 0.00 85 1014.8
20260506232503 50 81 1.0 2.0 0.00 0.00 0.00 84 1015.0
20260506232003 50 80 1.0 2.0 0.00 0.00 0.00 83 1015.0
20260506231503 50 92 0.0 2.0 0.00 0.00 0.00 84 1015.1
20260506231003 51 126 0.0 1.0 0.00 0.00 0.00 81 1014.9
20260506230503 51 124 0.0 2.0 0.00 0.00 0.00 80 1015.0
20260506230003 52 133 0.0 3.0 0.00 0.00 0.00 80 1014.9
20260506225503 52 130 0.0 3.0 0.00 0.00 0.00 79 1015.1
20260506225003 52 133 0.0 2.0 0.00 0.00 0.00 79 1015.0
20260506224524 52 142 1.0 3.0 0.00 0.00 0.00 78 1014.9
20260506224025 53 144 1.0 3.0 0.00 0.00 0.00 78 1014.9
20260506223524 53 150 2.0 3.0 0.00 0.00 0.00 78 1014.9
20260506223004 53 152 2.0 4.0 0.00 0.00 0.00 78 1014.8
20260506222503 53 144 2.0 4.0 0.00 0.00 0.00 77 1015.2
20260506222003 53 144 2.0 4.0 0.00 0.00 0.00 77 1015.0
20260506221504 53 145 2.0 4.0 0.00 0.00 0.00 77 1014.8
20260506221003 53 138 2.0 4.0 0.00 0.00 0.00 77 1014.9
20260506220503 53 133 1.0 3.0 0.00 0.00 0.00 77 1015.1
20260506220003 53 136 0.0 3.0 0.00 0.00 0.00 77 1015.2
20260506215503 53 145 0.0 1.0 0.00 0.00 0.00 77 1014.8
20260506215004 53 182 0.0 2.0 0.00 0.00 0.00 77 1014.8
20260506214503 53 190 0.0 2.0 0.00 0.00 0.00 76 1014.8
20260506214003 53 198 0.0 2.0 0.00 0.00 0.00 76 1015.1
20260506213503 53 190 0.0 2.0 0.00 0.00 0.00 76 1015.0
20260506213024 53 189 0.0 2.0 0.00 0.00 0.00 76 1015.0
20260506212503 53 184 0.0 2.0 0.00 0.00 0.00 76 1014.8
20260506212024 54 187 0.0 3.0 0.00 0.00 0.00 76 1015.0
20260506211503 54 187 0.0 3.0 0.00 0.00 0.00 76 1015.0
20260506211024 54 182 0.0 2.0 0.00 0.00 0.00 75 1015.1
20260506210503 54 202 0.0 2.0 0.00 0.00 0.00 75 1015.0
20260506210003 54 196 1.0 4.0 0.00 0.00 0.00 75 1014.8
20260506205503 54 182 1.0 4.0 0.00 0.00 0.00 74 1014.8
20260506205003 54 183 1.0 3.0 0.00 0.00 0.00 74 1014.8
20260506204503 54 201 1.0 4.0 0.00 0.00 0.00 73 1014.6
20260506204003 55 205 1.0 4.0 0.00 0.00 0.00 73 1014.8
20260506203503 55 199 1.0 2.0 0.00 0.00 0.00 72 1014.5
20260506203003 55 197 1.0 4.0 0.00 0.00 0.00 72 1014.6
20260506202503 55 199 1.0 4.0 0.00 0.00 0.00 71 1014.6
20260506202003 56 208 2.0 6.0 0.00 0.00 0.00 70 1014.5
20260506201503 56 209 2.0 6.0 0.00 0.00 0.00 70 1014.5
20260506201003 56 216 2.0 4.0 0.00 0.00 0.00 69 1014.5
20260506200503 56 235 3.0 7.0 0.00 0.00 0.00 69 1014.3
20260506200005 56 245 3.0 7.0 0.00 0.00 0.00 69 1014.2
20260506195524 56 248 3.0 6.0 0.00 0.00 0.00 68 1014.3
20260506195003 57 237 2.0 6.0 0.00 0.00 0.00 67 1014.3
20260506194503 57 220 2.0 6.0 0.00 0.00 0.00 64 1014.2
20260506194003 58 219 2.0 6.0 0.00 0.00 0.00 63 1014.1
20260506193503 58 222 3.0 4.0 0.00 0.00 0.00 61 1014.2
20260506193003 58 218 2.0 4.0 0.00 0.00 0.00 61 1014.1
20260506192504 59 213 2.0 4.0 0.00 0.00 0.00 60 1014.1
20260506192003 59 215 2.0 4.0 0.00 0.00 0.00 59 1013.9
20260506191525 59 218 2.0 6.0 0.00 0.00 0.00 59 1013.9
20260506191004 59 226 3.0 6.0 0.00 0.00 0.00 57 1013.9
20260506190504 60 221 2.0 6.0 0.00 0.00 0.00 57 1013.9
20260506190005 60 179 1.0 4.0 0.00 0.00 0.00 57 1013.9
20260506185504 60 92 1.0 3.0 0.00 0.00 0.00 56 1014.1
20260506185025 60 87 2.0 3.0 0.00 0.00 0.00 56 1014.0
20260506184504 60 99 1.0 3.0 0.00 0.00 0.00 55 1013.9
20260506184003 60 113 1.0 3.0 0.00 0.00 0.00 55 1013.7
20260506183503 60 111 1.0 3.0 0.00 0.00 0.00 54 1013.8
20260506183005 60 95 1.0 3.0 0.00 0.00 0.00 53 1014.0
20260506182504 60 104 2.0 4.0 0.00 0.00 0.00 53 1014.1
20260506182025 60 114 1.0 4.0 0.00 0.00 0.00 54 1013.9
20260506181504 61 109 2.0 6.0 0.00 0.00 0.00 53 1013.9
20260506181004 61 111 3.0 8.0 0.00 0.00 0.00 53 1013.6
20260506180504 61 111 3.0 8.0 0.00 0.00 0.00 51 1013.7
20260506180005 61 111 3.0 8.0 0.00 0.00 0.00 52 1013.9
20260506175504 61 114 2.0 6.0 0.00 0.00 0.00 52 1013.9
20260506175004 61 109 3.0 9.0 0.00 0.00 0.00 52 1013.9
20260506174504 61 105 5.0 9.0 0.00 0.00 0.00 51 1013.9
20260506174004 61 106 4.0 8.0 0.00 0.00 0.00 51 1013.8
20260506173504 62 121 3.0 8.0 0.00 0.00 0.00 49 1013.9
20260506173004 62 141 2.0 4.0 0.00 0.00 0.00 48 1013.9
20260506172504 62 144 2.0 6.0 0.00 0.00 0.00 48 1013.9
20260506172004 61 150 3.0 9.0 0.00 0.00 0.00 49 1013.9
20260506171504 61 146 4.0 9.0 0.00 0.00 0.00 50 1013.9
20260506171004 61 139 4.0 9.0 0.00 0.00 0.00 51 1013.7
20260506170504 61 148 4.0 10.0 0.00 0.00 0.00 51 1013.9
20260506170005 61 160 4.0 10.0 0.00 0.00 0.00 52 1014.0
20260506165505 62 155 4.0 9.0 0.00 0.00 0.00 52 1014.0
20260506165025 62 152 4.0 14.0 0.00 0.00 0.00 51 1014.1
20260506164504 63 160 4.0 14.0 0.00 0.00 0.00 51 1013.9
20260506164004 63 162 3.0 9.0 0.00 0.00 0.00 47 1014.1
20260506163504 64 168 3.0 8.0 0.00 0.00 0.00 46 1013.9
20260506163004 64 198 3.0 8.0 0.00 0.00 0.00 46 1013.8
20260506162504 64 234 3.0 7.0 0.00 0.00 0.00 44 1013.8
20260506162025 63 241 3.0 7.0 0.00 0.00 0.00 44 1013.8
20260506161504 64 222 4.0 8.0 0.00 0.00 0.00 43 1013.8
20260506161004 65 222 3.0 8.0 0.00 0.00 0.00 43 1014.0
20260506160504 64 237 3.0 7.0 0.00 0.00 0.00 43 1013.8
20260506160005 63 240 4.0 7.0 0.00 0.00 0.00 44 1013.9
20260506155504 64 227 3.0 7.0 0.00 0.00 0.00 44 1013.8
20260506155004 64 200 2.0 6.0 0.00 0.00 0.00 41 1013.9
20260506154504 63 155 3.0 8.0 0.00 0.00 0.00 42 1014.0
20260506154004 63 142 5.0 9.0 0.00 0.00 0.00 44 1014.1
20260506153504 63 138 5.0 11.0 0.00 0.00 0.00 44 1014.1
20260506153004 65 142 5.0 14.0 0.00 0.00 0.00 42 1014.2
20260506152525 63 159 4.0 14.0 0.00 0.00 0.00 43 1014.1
20260506152004 65 184 2.0 10.0 0.00 0.00 0.00 40 1014.2
20260506151504 63 135 2.0 7.0 0.00 0.00 0.00 40 1014.2
20260506151004 64 101 3.0 7.0 0.00 0.00 0.00 42 1014.2
20260506150505 64 121 3.0 9.0 0.00 0.00 0.00 40 1014.5
20260506150005 64 152 3.0 9.0 0.00 0.00 0.00 39 1014.5
20260506145504 62 154 3.0 8.0 0.00 0.00 0.00 41 1014.6
20260506145005 64 186 2.0 6.0 0.00 0.00 0.00 40 1014.6
20260506144504 63 229 2.0 6.0 0.00 0.00 0.00 41 1014.7
20260506144004 64 253 2.0 7.0 0.00 0.00 0.00 39 1014.7
20260506143504 64 259 4.0 8.0 0.00 0.00 0.00 41 1014.9
20260506143004 63 258 3.0 8.0 0.00 0.00 0.00 39 1014.8
20260506142504 65 233 2.0 6.0 0.00 0.00 0.00 40 1014.8
20260506142004 64 184 2.0 8.0 0.00 0.00 0.00 40 1015.0
20260506141525 65 180 3.0 8.0 0.00 0.00 0.00 38 1014.9
20260506141004 65 168 2.0 7.0 0.00 0.00 0.00 37 1014.9
20260506140504 64 167 2.0 7.0 0.00 0.00 0.00 40 1015.0
20260506140005 64 174 2.0 7.0 0.00 0.00 0.00 36 1015.0
20260506135504 64 214 2.0 10.0 0.00 0.00 0.00 36 1015.2
20260506135025 65 227 2.0 10.0 0.00 0.00 0.00 36 1015.4
20260506134504 64 210 3.0 10.0 0.00 0.00 0.00 38 1015.3
20260506134025 63 207 3.0 7.0 0.00 0.00 0.00 39 1015.4
20260506133504 64 215 2.0 7.0 0.00 0.00 0.00 36 1015.5
20260506133004 62 239 2.0 8.0 0.00 0.00 0.00 38 1015.6
20260506132504 62 241 4.0 9.0 0.00 0.00 0.00 41 1015.5
20260506132005 62 245 4.0 11.0 0.00 0.00 0.00 38 1015.5
20260506131525 63 244 4.0 11.0 0.00 0.00 0.00 38 1015.6
20260506131025 61 241 4.0 11.0 0.00 0.00 0.00 38 1015.4
20260506130504 62 233 5.0 11.0 0.00 0.00 0.00 39 1015.8
20260506130005 63 198 2.0 9.0 0.00 0.00 0.00 42 1015.8
20260506125504 62 118 1.0 3.0 0.00 0.00 0.00 39 1015.8
20260506125004 62 240 2.0 6.0 0.00 0.00 0.00 40 1015.8
20260506124504 61 251 3.0 8.0 0.00 0.00 0.00 40 1015.9
20260506124004 61 254 4.0 9.0 0.00 0.00 0.00 43 1016.0
20260506123525 61 260 3.0 9.0 0.00 0.00 0.00 42 1016.3
20260506123004 61 338 2.0 6.0 0.00 0.00 0.00 40 1016.6
20260506122504 61 351 2.0 6.0 0.00 0.00 0.00 42 1016.6
20260506122004 60 6 2.0 6.0 0.00 0.00 0.00 40 1016.3
20260506121525 60 304 4.0 9.0 0.00 0.00 0.00 39 1016.4
20260506121004 60 281 4.0 9.0 0.00 0.00 0.00 43 1016.7
20260506120504 60 275 3.0 6.0 0.00 0.00 0.00 43 1016.9
20260506120005 60 141 2.0 4.0 0.00 0.00 0.00 43 1016.8
20260506115504 60 129 2.0 6.0 0.00 0.00 0.00 43 1016.7
20260506115004 60 134 3.0 6.0 0.00 0.00 0.00 43 1017.0
20260506114504 61 175 1.0 4.0 0.00 0.00 0.00 44 1017.2
20260506114004 59 312 2.0 7.0 0.00 0.00 0.00 45 1017.1
20260506113504 59 326 3.0 7.0 0.00 0.00 0.00 45 1017.3
20260506113004 59 304 2.0 7.0 0.00 0.00 0.00 46 1017.3
20260506112525 58 236 2.0 7.0 0.00 0.00 0.00 49 1017.3
20260506112004 57 262 3.0 7.0 0.00 0.00 0.00 49 1017.4
20260506111504 58 344 2.0 6.0 0.00 0.00 0.00 49 1017.6
20260506111025 58 299 2.0 6.0 0.00 0.00 0.00 48 1017.6
20260506110525 57 274 2.0 4.0 0.00 0.00 0.00 48 1017.6
20260506110004 57 236 1.0 4.0 0.00 0.00 0.00 50 1017.8
20260506105504 56 244 2.0 7.0 0.00 0.00 0.00 50 1017.7
20260506105004 57 262 3.0 7.0 0.00 0.00 0.00 50 1017.8
20260506104525 57 276 2.0 6.0 0.00 0.00 0.00 51 1017.7
20260506104004 56 249 3.0 8.0 0.00 0.00 0.00 52 1017.8
20260506103525 56 237 2.0 8.0 0.00 0.00 0.00 52 1018.0
20260506103004 58 170 1.0 6.0 0.00 0.00 0.00 50 1017.8
20260506102504 58 164 2.0 6.0 0.00 0.00 0.00 48 1017.9
20260506102004 57 213 3.0 7.0 0.00 0.00 0.00 50 1018.0
20260506101504 56 222 3.0 7.0 0.00 0.00 0.00 53 1017.9
20260506101004 57 238 3.0 6.0 0.00 0.00 0.00 52 1018.1
20260506100504 56 248 2.0 6.0 0.00 0.00 0.00 55 1017.9
20260506100004 55 185 2.0 4.0 0.00 0.00 0.00 54 1018.1
20260506095504 57 185 1.0 4.0 0.00 0.00 0.00 52 1018.1
20260506095004 56 212 1.0 4.0 0.00 0.00 0.00 53 1018.0
20260506094504 55 166 2.0 4.0 0.00 0.00 0.00 53 1018.0
20260506094004 55 150 2.0 8.0 0.00 0.00 0.00 55 1018.2
20260506093504 54 153 3.0 8.0 0.00 0.00 0.00 58 1018.0
20260506093004 55 186 2.0 8.0 0.00 0.00 0.00 61 1018.0
20260506092504 53 220 2.0 4.0 0.00 0.00 0.00 65 1018.2
20260506092004 54 194 2.0 4.0 0.00 0.00 0.00 62 1018.0
20260506091525 53 143 1.0 3.0 0.00 0.00 0.00 63 1018.3
20260506091004 54 169 1.0 3.0 0.00 0.00 0.00 64 1018.1
20260506090504 52 198 2.0 4.0 0.00 0.00 0.00 65 1018.2
20260506090026 52 210 2.0 7.0 0.00 0.00 0.00 67 1018.3
20260506085504 51 221 3.0 7.0 0.00 0.00 0.00 69 1018.1
20260506085004 51 229 2.0 6.0 0.00 0.00 0.00 72 1018.2
20260506084504 52 218 2.0 6.0 0.00 0.00 0.00 71 1018.1
20260506084004 51 212 2.0 6.0 0.00 0.00 0.00 72 1018.4
20260506083504 51 209 2.0 6.0 0.00 0.00 0.00 74 1018.3
20260506083004 51 216 2.0 6.0 0.00 0.00 0.00 72 1018.3
20260506082504 51 211 2.0 6.0 0.00 0.00 0.00 75 1018.2
20260506082004 51 208 1.0 3.0 0.00 0.00 0.00 76 1018.4
20260506081504 50 233 2.0 4.0 0.00 0.00 0.00 80 1018.4
20260506081004 50 231 2.0 4.0 0.00 0.00 0.00 79 1018.5
20260506080525 50 234 1.0 3.0 0.00 0.00 0.00 80 1018.8
20260506073504 49 250 2.0 4.0 0.00 0.00 0.00 84 1018.5
20260506073004 49 239 2.0 4.0 0.00 0.00 0.00 83 1018.5
20260506072525 49 210 1.0 3.0 0.00 0.00 0.00 83 1018.5
20260506072004 49 207 2.0 4.0 0.00 0.00 0.00 82 1018.4
20260506071525 49 209 1.0 4.0 0.00 0.00 0.00 82 1018.4
20260506071004 49 179 1.0 2.0 0.00 0.00 0.00 82 1018.3
20260506070504 49 148 1.0 4.0 0.00 0.00 0.00 80 1018.5
20260506062504 49 104 0.0 1.0 0.00 0.00 0.00 81 1018.5
20260506062004 49 100 0.0 1.0 0.00 0.00 0.00 80 1018.5
20260506061504 49 314 0.0 1.0 0.00 0.00 0.00 83 1018.4
20260506061004 47 300 0.0 1.0 0.00 0.00 0.00 87 1018.7
20260506060504 46 300 0.0 1.0 0.00 0.00 0.00 89 1018.4
20260506051004 44 320 0.0 1.0 0.00 0.00 0.00 94 1018.0
20260506050504 44 319 1.0 2.0 0.00 0.00 0.00 94 1018.1
20260506045004 44 277 0.0 1.0 0.00 0.00 0.00 95 1018.2
20260506044504 44 262 0.0 1.0 0.00 0.00 0.00 94 1018.2
20260506044003 44 254 0.0 1.0 0.00 0.00 0.00 94 1018.1
20260506043525 44 113 0.0 1.0 0.00 0.00 0.00 94 1018.0
20260506043004 44 95 0.0 1.0 0.00 0.00 0.00 94 1018.1
20260506042504 44 95 0.0 1.0 0.00 0.00 0.00 94 1018.0
20260506042004 44 96 0.0 1.0 0.00 0.00 0.00 94 1018.1
20260506041504 44 79 0.0 1.0 0.00 0.00 0.00 95 1017.9
20260506041004 44 0 0.0 0.0 0.00 0.00 0.00 95 1018.3
20260506040503 44 0 0.0 0.0 0.00 0.00 0.00 95 1018.1
20260506040004 44 358 0.0 1.0 0.00 0.00 0.00 95 1018.3
20260506035503 44 358 0.0 1.0 0.00 0.00 0.00 95 1018.0
20260506035004 44 2 0.0 2.0 0.00 0.00 0.00 95 1018.2
20260506034503 44 5 0.0 2.0 0.00 0.00 0.00 95 1018.2
20260506034024 44 0 0.0 0.0 0.00 0.00 0.00 94 1018.4
20260506033504 44 0 0.0 0.0 0.00 0.00 0.00 94 1018.3
20260506033004 44 0 0.0 0.0 0.00 0.00 0.00 94 1018.3
20260506032504 45 0 0.0 0.0 0.00 0.00 0.00 94 1018.4
20260506032004 45 0 0.0 0.0 0.00 0.00 0.00 94 1018.3
20260506031504 45 0 0.0 0.0 0.00 0.00 0.00 94 1018.3
20260506031004 45 0 0.0 0.0 0.00 0.00 0.00 94 1018.4
20260506030504 45 0 0.0 0.0 0.00 0.00 0.00 93 1018.5
20260506030004 45 0 0.0 0.0 0.00 0.00 0.00 93 1018.3
20260506025504 45 0 0.0 0.0 0.00 0.00 0.00 92 1018.5
20260506025025 46 0 0.0 0.0 0.00 0.00 0.00 92 1018.3
20260506024504 46 0 0.0 0.0 0.00 0.00 0.00 91 1018.3
20260506024004 46 111 0.0 1.0 0.00 0.00 0.00 91 1018.4
20260506023504 46 114 0.0 1.0 0.00 0.00 0.00 91 1018.3
20260506023004 46 101 1.0 2.0 0.00 0.00 0.00 91 1018.3
20260506022504 46 90 0.0 2.0 0.00 0.00 0.00 91 1018.3
20260506022004 46 23 0.0 1.0 0.00 0.00 0.00 91 1018.5
20260506021504 46 295 0.0 2.0 0.00 0.00 0.00 91 1018.5
20260506021003 46 319 1.0 3.0 0.00 0.00 0.00 91 1018.3
20260506020503 46 318 2.0 3.0 0.00 0.00 0.00 90 1018.7
20260506020004 47 295 2.0 4.0 0.00 0.00 0.00 89 1018.5
20260506015525 47 272 2.0 4.0 0.00 0.00 0.00 88 1018.5
20260506015003 47 232 1.0 3.0 0.00 0.00 0.00 89 1018.5
20260506014524 47 235 1.0 3.0 0.00 0.00 0.00 90 1018.3
20260506014004 47 241 1.0 3.0 0.00 0.00 0.00 90 1018.4
20260506013504 47 239 1.0 2.0 0.00 0.00 0.00 89 1018.4
20260506013003 47 236 1.0 2.0 0.00 0.00 0.00 89 1018.3
20260506012503 47 234 1.0 3.0 0.00 0.00 0.00 89 1018.5
20260506012004 48 230 1.0 3.0 0.00 0.00 0.00 88 1018.7
20260506011504 48 217 1.0 2.0 0.00 0.00 0.00 89 1018.5
20260506011004 48 194 0.0 3.0 0.00 0.00 0.00 89 1018.5
20260506010504 47 185 0.0 4.0 0.00 0.00 0.00 90 1018.7
20260506010004 47 160 0.0 4.0 0.00 0.00 0.00 91 1018.7
20260506005504 47 110 0.0 1.0 0.00 0.00 0.00 91 1018.7
20260506005003 46 110 0.0 1.0 0.00 0.00 0.00 92 1018.8
20260506004504 46 71 0.0 2.0 0.00 0.00 0.00 92 1018.9
20260506004003 46 65 1.0 2.0 0.00 0.00 0.00 91 1018.7
20260506003503 46 62 0.0 2.0 0.00 0.00 0.00 91 1018.8
20260506003003 47 0 0.0 0.0 0.00 0.00 0.00 91 1019.0
20260506002503 47 0 0.0 0.0 0.00 0.00 0.00 91 1019.0
20260506002003 47 208 0.0 1.0 0.00 0.00 0.00 90 1018.9
20260506001503 47 208 0.0 1.0 0.00 0.00 0.00 89 1018.9
20260506001003 47 208 0.0 1.0 0.00 0.00 0.00 89 1019.0
20260506000503 47 0 0.0 0.0 0.00 0.00 0.00 88 1019.0
20260506000004 48 208 0.0 1.0 0.00 0.00 0.00 88 1018.8